Content
SEND FEEDBACK

Daily
Averages
Monthly
Summary
Brazil

RIO DE JANEIRO, RIO DE JANEIRO


Home > South America > Brazil > Rio De Janeiro
Elevation: 20 feet     Latitude: 22 49S     Longitude: 043 15W

WEATHER
 
SELECT A DAY
Number of Records: 196,251;   Date Range: 6/30/96 - 10/23/14
 
SHARE

PRINT THIS DATA

[ ← Previous Day ]
WEATHER ALMANAC - JUNE 22, 2013
[ Next Day → ]
[ °C ]   °F
Weather ElementAverageHighLow
Temperature76.4 °F83 °F (12:00 pm)69.8 °F (2:00 am)
Dewpoint62.7 °F68 °F (1:00 pm)59 °F (8:00 am)
Humidity61 %88 % (2:00 am)41 % (12:00 pm)
Barometer29.89 in30.09 in (11:00 pm)29.77 in (2:00 am)
Wind Speed10.2 mph25.3 mph (4:00 pm)
Weather ElementAverage
Visibility7.3 mi
Wind DirectionSW (224 °)

Weather ElementTotal
Precipitation---
Cooling Degree Days11.4 (Base 65)
Growing Degree Days26.4 (Base 50)
Averaged from 30 records on June 22, 2013
WEATHER CONDITIONS BREAKOUT
WIND DIRECTION BREAKOUT
WEATHER BY HOUR - JUNE 22, 2013
[ °C ]   °F
Local TimeTemperatureDewpointHumidityBarometerVisibilityWind DirectionWind SpeedGust SpeedPrecipitationEventsConditions
1:00 AM71.6 °F66.2 °F83 %29.80 inCalmClear
2:00 AM69.8 °F66.2 °F88 %29.77 inCalmClear
3:00 AM73.0 °F62.0 °F59 %29.78 in12.0 miNNW (330°)11.5 mph
3:00 AM73.4 °F60.8 °F65 %29.77 inNNW (330°)11.5 mphClear
4:00 AM73.4 °F60.8 °F65 %29.77 in5.0 miNNW (340°)11.5 mph
5:00 AM75.2 °F60.8 °F61 %29.77 inWest (260°)9.2 mphClear
6:00 AM77.0 °F66.2 °F69 %29.77 in6.2 miSSW (200°)8.1 mphMostly Cloudy
6:00 AM77.0 °F66.0 °F62 %29.79 in12.0 miSSW (200°)8.1 mphScattered Clouds
7:00 AM73.4 °F64.4 °F73 %29.80 in6.2 miESE (120°)3.5 mphMostly Cloudy
8:00 AM82.4 °F59.0 °F45 %29.83 in6.2 miWest (270°)8.1 mphMostly Cloudy
9:00 AM81.0 °F62.0 °F42 %29.86 in11.0 miWest (270°)10.4 mphHaze
9:00 AM80.6 °F60.8 °F51 %29.86 in6.2 miWest (270°)10.4 mphMostly Cloudy
10:00 AM80.6 °F64.4 °F58 %29.86 in6.2 miWest (260°)8.1 mphMostly Cloudy
11:00 AM82.4 °F62.6 °F51 %29.89 in6.2 miWest (260°)10.4 mphMostly Cloudy
12:00 PM82.4 °F62.6 °F51 %29.89 in6.2 miWSW (240°)10.4 mphMostly Cloudy
12:00 PM83.0 °F63.0 °F41 %9.0 miWSW (240°)10.4 mph
1:00 PM80.6 °F68.0 °F65 %29.89 in6.2 miSW (220°)16.1 mphMostly Cloudy
2:00 PM80.6 °F66.2 °F61 %29.89 in6.2 miSSW (210°)15.0 mphMostly Cloudy
3:00 PM78.0 °F65.0 °F56 %9.0 miSW (220°)17.3 mph
3:00 PM78.8 °F66.2 °F65 %29.89 in6.2 miSW (220°)17.3 mphMostly Cloudy
4:00 PM75.2 °F64.4 °F69 %29.95 in6.2 miSSW (210°)25.3 mphMostly Cloudy
5:00 PM75.2 °F62.6 °F65 %29.95 in6.2 miSSW (200°)16.1 mphMostly Cloudy
6:00 PM73.4 °F60.8 °F65 %29.98 in6.2 miSW (220°)10.4 mphMostly Cloudy
6:00 PM74.0 °F61.0 °F54 %8.0 miSW (220°)10.4 mph
7:00 PM73.4 °F60.8 °F65 %30.04 in6.2 miSW (230°)9.2 mphMostly Cloudy
8:00 PM73.4 °F60.8 °F65 %30.04 in6.2 miWSW (240°)10.4 mphMostly Cloudy
9:00 PM73.0 °F60.0 °F54 %30.07 in12.0 miSW (230°)8.1 mphOvercast
9:00 PM73.4 °F59.0 °F61 %30.06 in6.2 miSW (230°)8.1 mphMostly Cloudy
10:00 PM73.4 °F59.0 °F61 %30.06 in6.2 miWSW (240°)6.9 mphMostly Cloudy
11:00 PM73.4 °F59.0 °F61 %30.09 in6.2 miWSW (240°)4.6 mphMostly Cloudy
Hourly data recorded from SBGL, located miles away from Rio De Janeiro, Rio De Janeiro







STORIES FROM OUR PARTNERS